Sault Ste Marie, MI

10:19 AM EDT on May 26, 2017 (GMT -0400)
Sault Ste Marie Municipal / Sanderson Field

Weather History for KANJ - December, 2014

Change the Weather History Date:

Monday, December 15, 2014

  Actual Average Record
Temperature  
Mean Temperature 37 °F 22 °F  
Max Temperature 38 °F 29 °F 44 °F (1993)
Min Temperature 35 °F 16 °F -14 °F (1926)
Degree Days  
Heating Degree Days 28 43  
Month to date heating degree days 592 600  
Since 1 July heating degree days 2754 2532  
Moisture  
Dew Point 35 °F    
Average Humidity 96    
Maximum Humidity 100    
Minimum Humidity 92    
Precipitation  
Precipitation 0.05 in 0.09 in 0.90 in (1971)
Month to date precipitation 0.76 1.46  
Year to date precipitation 37.94 31.62  
Snow  
Snow 0.00 in 1.20 in 7.00 in (1891)
Month to date snowfall 14.9 15.6  
Since 1 July snowfall 80.3 32.3  
Snow Depth 10.00 in    
Sea Level Pressure  
Sea Level Pressure 29.92 in    
Wind  
Wind Speed 6 mph (ESE)    
Max Wind Speed 12 mph    
Max Gust Speed 16 mph    
Visibility 1 miles    
Events Fog , Rain    
T = Trace of Precipitation, MM = Missing Value Source: NWS Daily Summary

Daily Weather History Graph

Daily Weather History Graph

Search for Another Location

Airport or City:

Trip Planner

Search our weather history database for the weather conditions in past years. The results will help you decide how hot, cold, wet, or windy it might be!

Date:

Astronomy

Dec. 15, 2014 Rise Set
Actual Time 8:14 AM EST 4:50 PM EST
Civil Twilight 7:39 AM EST 5:25 PM EST
Nautical Twilight 7:01 AM EST 6:04 PM EST
Astronomical Twilight 6:24 AM EST 6:40 PM EST
Moon 1:11 AM EST (12/15) 1:09 PM EST (12/15)
Length of Visible Light 9h 46m
Length of Day
8h 36m
Last Quarter, 39% of the Moon is Illuminated
Dec 15
Last Quarter
Dec 21
New
Dec 28
First Quarter
Jan 4
Full
Jan 13
Last Quarter

Hourly Weather History & Observations

Time (EST) Temp. Windchill Dew Point Humidity Pressure Visibility Wind Dir Wind Speed Gust Speed Precip Events Conditions
12:06 AM 36.0 °F 32.1 °F 35.1 °F 97% 29.99 in 2.5 mi ESE 4.6 mph - N/A   Overcast
12:55 AM 36.0 °F 32.1 °F 35.1 °F 97% 30.01 in 3.0 mi ESE 4.6 mph - N/A   Overcast
1:29 AM 36.0 °F 31.1 °F 35.1 °F 97% 29.98 in 2.5 mi SE 5.8 mph - N/A   Overcast
1:40 AM 36.0 °F 29.6 °F 35.1 °F 97% 29.97 in 1.5 mi ESE 8.1 mph - N/A   Overcast
1:55 AM 36.0 °F 32.1 °F 35.1 °F 97% 30.00 in 1.2 mi East 4.6 mph - N/A   Overcast
2:55 AM 35.1 °F 30.1 °F 35.1 °F 100% 30.00 in 1.5 mi East 5.8 mph - N/A   Overcast
3:18 AM 35.1 °F 29.3 °F 34.0 °F 96% 29.97 in 2.0 mi East 6.9 mph - N/A   Overcast
3:55 AM 35.1 °F 29.3 °F 34.0 °F 96% 29.98 in 2.0 mi East 6.9 mph - N/A   Overcast
4:27 AM 35.1 °F 27.9 °F 34.0 °F 96% 29.95 in 1.5 mi ESE 9.2 mph - N/A   Overcast
4:55 AM 35.1 °F 29.3 °F 34.0 °F 96% 29.98 in 0.8 mi East 6.9 mph - N/A   Mist
5:55 AM 35.1 °F 30.1 °F 34.0 °F 96% 29.97 in 0.8 mi East 5.8 mph - N/A   Mist
6:55 AM 35.1 °F 28.6 °F 34.0 °F 96% 29.96 in 0.5 mi ESE 8.1 mph - N/A Fog Fog
7:55 AM 35.1 °F 28.6 °F 34.0 °F 96% 29.95 in 0.5 mi East 8.1 mph - N/A Fog Fog
8:55 AM 35.1 °F 28.6 °F 34.0 °F 96% 29.95 in 0.5 mi ESE 8.1 mph - N/A Fog Fog
9:55 AM 36.0 °F 30.3 °F 35.1 °F 97% 29.94 in 0.2 mi ESE 6.9 mph - N/A Fog Fog
10:55 AM 36.0 °F 30.3 °F 35.1 °F 97% 29.92 in 0.2 mi ESE 6.9 mph - N/A Fog Fog
11:55 AM 36.0 °F 31.1 °F 35.1 °F 97% 29.90 in 0.2 mi ESE 5.8 mph - N/A Fog Fog
12:55 PM 37.0 °F 31.0 °F 36.0 °F 96% 29.88 in 0.2 mi ESE 8.1 mph - N/A Fog Fog
1:55 PM 36.0 °F 29.6 °F 35.1 °F 97% 29.87 in 0.2 mi ESE 8.1 mph - N/A Fog Fog
2:55 PM 36.0 °F 30.3 °F 35.1 °F 97% 29.86 in 0.2 mi ESE 6.9 mph - 0.01 in Fog , Rain Light Rain
3:55 PM 37.0 °F 33.3 °F 36.0 °F 96% 29.86 in 0.2 mi ESE 4.6 mph - 0.02 in Fog Fog
4:55 PM 37.0 °F 32.4 °F 36.0 °F 96% 29.86 in 0.5 mi East 5.8 mph - N/A Fog Fog
5:55 PM 37.0 °F 33.3 °F 36.0 °F 96% 29.86 in 0.2 mi ESE 4.6 mph - N/A Fog Fog
6:55 PM 37.0 °F 32.4 °F 36.0 °F 96% 29.86 in 0.5 mi SE 5.8 mph - N/A Fog Fog
7:55 PM 37.0 °F 31.0 °F 36.0 °F 96% 29.85 in 0.8 mi ESE 8.1 mph - N/A   Mist
8:55 PM 37.0 °F 33.3 °F 37.0 °F 100% 29.84 in 0.5 mi ESE 4.6 mph - N/A Fog Fog
9:55 PM 37.0 °F 33.3 °F 36.0 °F 96% 29.83 in 0.2 mi East 4.6 mph - 0.01 in Fog Fog
10:55 PM 37.0 °F 34.5 °F 36.0 °F 96% 29.83 in 0.2 mi East 3.5 mph - N/A Fog Fog
11:55 PM 37.0 °F 34.5 °F 36.0 °F 96% 29.83 in 0.5 mi ESE 3.5 mph - 0.00 in Fog , Rain Light Rain